Flag for Germany Weather past 2 weeks in Ingolstadt, Bavaria, Germany

Now
81 °F

Pleasantly warm.


Feels Like: 80 °F
Forecast: 60 / 74 °F
Wind: 8 mph from Northeast

Location: Ingolstadt Airport

Current Time: Jul 26, 2014 at 8:10:13 PM

Latest Report: Jul 26, 2014 at 7:20 PM


Visibility: 3 mi

Pressure: 29.83 "Hg

Humidity: 39%

Dew point: 54 °F

Location of IngolstadtLocation

Historic Weather in Ingolstadt — Graph

°F

Ingolstadt temperature yesterday

Maximum temperature yesterday: 81 °F (at 3:20 PM)
Minimum temperature yesterday: 55 °F (at 5:20 AM)
Average temperature yesterday: 69 °F

Past Weeks' High & Low Weather Summary

 TemperatureHumidityPressure
High90 °F (Jul 19, 4:20 PM)100% (Jul 14, 5:20 AM)30.18 "Hg (Jul 14, 5:20 AM)
Low55 °F (Jul 23, 5:20 AM)24% (Jul 19, 4:20 PM)29.80 "Hg (Jul 20, 6:20 PM)
Average70 °F69%29.97 "Hg
* Reported Jul 11 6:20 PM — Jul 26 6:20 PM, Ingolstadt, Weather by CustomWeather, © 2014

Note: Actual official high and low records may vary slightly from our data, if they occured in-between our weather recording intervals... More about our weather records

Advertising

Ingolstadt weather history for previous 24 hours

 ConditionsComfort  
Time TempWeatherWind HumidityBarometerVisibility
6:20 PM
Jul 26
81 °FPleasantly warm.6 mph39%29.83 "Hg3 mi
5:20 PM82 °FPleasantly warm.8 mph35%29.83 "Hg3 mi
4:20 PM82 °FPleasantly warm.7 mph32%29.83 "Hg3 mi
3:20 PM82 °FPleasantly warm.6 mph35%29.86 "Hg4 mi
2:20 PM81 °FPleasantly warm.6 mph37%29.86 "Hg3 mi
1:20 PM81 °FPleasantly warm.7 mph37%29.89 "Hg4 mi
12:20 PM79 °FWarm.7 mph45%29.89 "Hg3 mi
11:20 AM75 °FMild.5 mph57%29.89 "Hg3 mi
10:20 AM72 °FMild.6 mph69%29.92 "Hg3 mi
9:20 AM68 °FMild.6 mph73%29.92 "Hg3 mi
8:20 AM64 °FMild.5 mph78%29.92 "Hg3 mi
7:20 AM61 °FBroken clouds.1 mph88%29.92 "HgN/A
6:20 AM59 °FCool.3 mph88%29.89 "Hg3 mi
5:20 AM61 °FCool.2 mph88%29.89 "Hg2 mi
4:20 AM61 °FCool.1 mph88%29.89 "Hg3 mi
3:20 AM61 °FCool.2 mph88%29.92 "Hg1 mi
2:20 AM61 °FCool.No wind88%29.92 "Hg2 mi
1:20 AM63 °FMild.2 mph88%29.92 "Hg2 mi
12:20 AM63 °FMild.No wind88%29.92 "Hg2 mi
11:20 PM
Jul 25
66 °FMild.2 mph78%29.92 "Hg2 mi
10:20 PM66 °FMild.1 mph78%29.92 "Hg3 mi
9:20 PM70 °FMild.2 mph64%29.92 "Hg3 mi
8:20 PM75 °FMild.5 mph50%29.89 "Hg3 mi
Weather by CustomWeather, © 2014

See weather overviewHow to use our weather pages